Time,TemperatureF,DewpointF,PressureIn,WindDirection,WindDirectionDegrees,WindSpeedMPH,WindSpeedGustMPH,Humidity,HourlyPrecipIn,Conditions,Clouds,dailyrainin,SoftwareType,DateUTC
2013-04-23 00:00:00,40.6,32.6,30.59,South,169,1.0,1.0,73,0.00,,,0.00,Wunderground v.1.15,2013-04-23 04:00:00,
2013-04-23 00:30:00,40.7,32.7,30.59,WNW,293,1.0,1.0,73,0.00,,,0.00,Wunderground v.1.15,2013-04-23 04:30:00,
2013-04-23 01:00:00,40.7,33.1,30.58,ESE,119,1.0,1.0,74,0.00,,,0.00,Wunderground v.1.15,2013-04-23 05:00:00,
2013-04-23 01:30:00,40.9,32.9,30.57,SE,141,1.0,2.0,73,0.00,,,0.00,Wunderground v.1.15,2013-04-23 05:30:00,
2013-04-23 02:00:00,41.2,33.5,30.55,ESE,114,1.0,1.0,74,0.00,,,0.00,Wunderground v.1.15,2013-04-23 06:00:00,
2013-04-23 02:30:00,41.2,33.5,30.53,SE,141,1.0,1.0,74,0.00,,,0.00,Wunderground v.1.15,2013-04-23 06:30:00,
2013-04-23 03:00:00,41.2,33.5,30.52,ENE,66,1.0,2.0,74,0.00,,,0.00,Wunderground v.1.15,2013-04-23 07:00:00,
2013-04-23 03:30:00,41.3,34.0,30.51,ESE,122,0.0,1.0,75,0.00,,,0.00,Wunderground v.1.15,2013-04-23 07:30:00,
2013-04-23 04:00:00,41.1,34.1,30.50,NNE,15,1.0,1.0,76,0.00,,,0.00,Wunderground v.1.15,2013-04-23 08:00:00,
2013-04-23 04:30:00,41.3,34.6,30.50,SSE,150,1.0,1.0,77,0.00,,,0.00,Wunderground v.1.15,2013-04-23 08:30:00,
2013-04-23 05:00:00,41.3,35.3,30.49,South,173,1.0,1.0,79,0.00,,,0.00,Wunderground v.1.15,2013-04-23 09:00:00,
2013-04-23 05:30:00,41.3,35.6,30.49,South,183,1.0,2.0,80,0.00,,,0.00,Wunderground v.1.15,2013-04-23 09:30:00,
2013-04-23 06:00:00,41.1,36.3,30.49,SE,145,2.0,2.0,83,0.00,,,0.00,Wunderground v.1.15,2013-04-23 10:00:00,
2013-04-23 06:30:00,41.1,36.9,30.49,ESE,122,1.0,2.0,85,0.00,,,0.00,Wunderground v.1.15,2013-04-23 10:30:00,
2013-04-23 07:00:00,40.4,37.1,30.49,East,97,0.0,0.0,88,0.00,,,0.00,Wunderground v.1.15,2013-04-23 11:00:00,
2013-04-23 07:30:00,40.2,37.5,30.49,SE,136,0.0,0.0,90,0.00,,,0.01,Wunderground v.1.15,2013-04-23 11:30:00,
2013-04-23 08:00:00,40.7,38.3,30.48,ESE,110,1.0,1.0,91,0.00,,,0.02,Wunderground v.1.15,2013-04-23 12:00:00,
2013-04-23 08:30:00,41.1,38.7,30.48,East,90,1.0,1.0,91,0.00,,,0.02,Wunderground v.1.15,2013-04-23 12:30:00,
2013-04-23 09:00:00,41.3,38.9,30.47,South,188,1.0,1.0,91,0.00,,,0.02,Wunderground v.1.15,2013-04-23 13:00:00,
2013-04-23 09:30:00,41.5,39.1,30.46,SE,138,1.0,2.0,91,0.00,,,0.02,Wunderground v.1.15,2013-04-23 13:30:00,
2013-04-23 10:00:00,41.7,39.3,30.46,SE,141,1.0,1.0,91,0.00,,,0.02,Wunderground v.1.15,2013-04-23 14:00:00,
2013-04-23 10:30:00,41.9,39.5,30.45,SE,146,1.0,2.0,91,0.00,,,0.02,Wunderground v.1.15,2013-04-23 14:30:00,
2013-04-23 11:00:00,42.0,39.6,30.44,East,99,1.0,1.0,91,0.00,,,0.02,Wunderground v.1.15,2013-04-23 15:00:00,
2013-04-23 11:30:00,42.2,39.8,30.43,SSE,147,1.0,1.0,91,0.00,,,0.02,Wunderground v.1.15,2013-04-23 15:30:00,
2013-04-23 12:00:00,42.4,39.7,30.43,ESE,121,2.0,2.0,90,0.00,,,0.02,Wunderground v.1.15,2013-04-23 16:00:00,
2013-04-23 12:30:00,42.7,40.0,30.41,SSE,165,1.0,1.0,90,0.00,,,0.03,Wunderground v.1.15,2013-04-23 16:30:00,
2013-04-23 13:00:00,42.9,40.2,30.40,SE,143,2.0,2.0,90,0.00,,,0.03,Wunderground v.1.15,2013-04-23 17:00:00,
2013-04-23 13:30:00,43.2,40.5,30.38,ESE,105,1.0,1.0,90,0.00,,,0.03,Wunderground v.1.15,2013-04-23 17:30:00,
2013-04-23 14:00:00,43.0,40.3,30.36,South,174,1.0,1.0,90,0.00,,,0.03,Wunderground v.1.15,2013-04-23 18:00:00,
2013-04-23 14:30:00,42.9,40.2,30.35,NE,41,1.0,1.0,90,0.00,,,0.03,Wunderground v.1.15,2013-04-23 18:30:00,
2013-04-23 15:00:00,42.8,40.1,30.33,SE,134,2.0,2.0,90,0.00,,,0.03,Wunderground v.1.15,2013-04-23 19:00:00,
2013-04-23 15:30:00,42.7,40.0,30.31,NNE,13,1.0,1.0,90,0.00,,,0.03,Wunderground v.1.15,2013-04-23 19:30:00,
2013-04-23 16:00:00,42.8,40.1,30.30,SSW,205,1.0,1.0,90,0.00,,,0.03,Wunderground v.1.15,2013-04-23 20:00:00,
2013-04-23 16:30:00,42.6,39.9,30.30,ESE,103,1.0,1.0,90,0.00,,,0.03,Wunderground v.1.15,2013-04-23 20:30:00,
2013-04-23 17:00:00,42.4,39.7,30.30,ESE,107,1.0,1.0,90,0.00,,,0.03,Wunderground v.1.15,2013-04-23 21:00:00,
2013-04-23 17:30:00,42.4,40.0,30.29,ENE,76,1.0,1.0,91,0.00,,,0.03,Wunderground v.1.15,2013-04-23 21:30:00,
2013-04-23 18:00:00,42.2,39.8,30.27,NE,44,1.0,1.0,91,0.00,,,0.04,Wunderground v.1.15,2013-04-23 22:00:00,
2013-04-23 18:30:00,42.3,39.9,30.26,East,86,1.0,3.0,91,0.00,,,0.04,Wunderground v.1.15,2013-04-23 22:30:00,
2013-04-23 19:00:00,42.3,39.9,30.24,ESE,103,1.0,1.0,91,0.00,,,0.04,Wunderground v.1.15,2013-04-23 23:00:00,
2013-04-23 19:30:00,42.3,39.9,30.24,ESE,116,1.0,1.0,91,0.00,,,0.04,Wunderground v.1.15,2013-04-23 23:30:00,
2013-04-23 20:00:00,42.2,39.8,30.23,NE,35,1.0,1.0,91,0.00,,,0.04,Wunderground v.1.15,2013-04-24 00:00:00,
2013-04-23 20:30:00,42.1,39.7,30.22,NE,34,1.0,1.0,91,0.00,,,0.04,Wunderground v.1.15,2013-04-24 00:30:00,
2013-04-23 21:00:00,42.0,39.6,30.21,ENE,60,1.0,2.0,91,0.00,,,0.04,Wunderground v.1.15,2013-04-24 01:00:00,
2013-04-23 21:30:00,41.9,39.5,30.18,NNE,30,1.0,1.0,91,0.00,,,0.04,Wunderground v.1.15,2013-04-24 01:30:00,
2013-04-23 22:00:00,42.0,39.6,30.18,NNE,24,1.0,2.0,91,0.00,,,0.04,Wunderground v.1.15,2013-04-24 02:00:00,
2013-04-23 22:30:00,42.2,39.8,30.17,NNE,31,1.0,2.0,91,0.00,,,0.04,Wunderground v.1.15,2013-04-24 02:30:00,
2013-04-23 23:00:00,42.3,40.1,30.16,NNE,27,1.0,1.0,92,0.00,,,0.04,Wunderground v.1.15,2013-04-24 03:00:00,
2013-04-23 23:30:00,42.4,40.2,30.14,NE,36,1.0,1.0,92,0.00,,,0.04,Wunderground v.1.15,2013-04-24 03:30:00,